KF0QIL-10 Weather Reports


Display with metric or nautical units.
time (UTC)temp
F
wind
direction
speed
MPH
gust
MPH
rain 1hr
in
rain 24hr
in
rain mn
in
humidity
%
barometer
mb
20260906160745 86 68 6.0 8.0 0.00 0.00 0.00 71 1016.7
20260906153745 85 63 6.0 9.0 0.00 0.00 0.00 73 1016.5
20260906150745 83 81 6.0 9.0 0.00 0.00 0.00 75 1016.3
20260906140745 80 104 6.0 7.0 0.00 0.00 0.00 79 1016.4
20260906133745 79 76 6.0 9.0 0.00 0.00 0.00 83 1016.0
20260906130745 77 79 6.0 8.0 0.00 0.00 0.00 88 1016.1
20260906120745 75 91 4.0 4.0 0.00 0.00 0.00 93 1015.6
20260906113745 75 79 4.0 5.0 0.00 0.00 0.00 94 1015.4
20260906110745 75 81 5.0 6.0 0.00 0.00 0.00 93 1015.4
20260906100745 77 73 5.0 6.0 0.00 0.00 0.00 91 1015.0
20260906093745 77 80 4.0 6.0 0.00 0.00 0.00 89 1014.6
20260906090745 77 52 2.0 4.0 0.00 0.00 0.00 87 1014.4
20260906080745 75 262 0.0 1.0 0.00 0.00 0.00 91 1014.1
20260906073745 75 265 0.0 1.0 0.00 0.00 0.00 89 1014.1
20260906070745 74 49 0.0 1.0 0.00 0.00 0.00 91 1014.3
20260906060745 74 76 0.0 1.0 0.00 0.00 0.00 92 1014.5
20260906053745 73 238 0.0 1.0 0.00 0.00 0.00 94 1014.5
20260906050745 74 65 0.0 1.0 0.00 0.00 0.00 93 1014.6
20260906041745 75 254 1.0 2.0 0.00 0.00 0.00 91 1014.3
20260906033745 75 300 1.0 2.0 0.00 0.00 0.00 89 1014.0
20260906030745 76 282 1.0 1.0 0.00 0.00 0.00 88 1013.7
20260906025745 76 294 1.0 1.0 0.00 0.00 0.00 88 1013.6
20260906024745 76 235 1.0 1.0 0.00 0.00 0.00 87 1013.6
20260906020127 77 135 0.0 1.0 0.00 0.00 0.00 83 1013.0
20260906013127 80 286 1.0 2.0 0.00 0.00 0.00 76 1012.7
20260906010127 82 268 2.0 2.0 0.00 0.00 0.00 74 1012.4
20260906000127 90 52 3.0 4.0 0.00 0.00 0.00 53 1012.3
20260905233127 94 37 6.0 8.0 0.00 0.00 0.00 51 1012.3
20260905230127 97 338 0.0 2.0 0.00 0.00 0.00 43 1012.2
20260905220127 98 261 4.0 6.0 0.00 0.00 0.00 38 1012.3
20260905213127 98 272 3.0 4.0 0.00 0.00 0.00 37 1012.3
20260905210127 100 299 2.0 4.0 0.00 0.00 0.00 39 1012.5
20260905200127 98 44 4.0 6.0 0.00 0.00 0.00 43 1013.3
20260905193127 98 300 4.0 6.0 0.00 0.00 0.00 42 1013.5
20260905190127 98 287 6.0 9.0 0.00 0.00 0.00 44 1013.9
20260905180127 97 23 3.0 4.0 0.00 0.00 0.00 46 1014.5
20260905173127 96 88 2.0 4.0 0.00 0.00 0.00 50 1014.8
20260905170127 95 336 5.0 8.0 0.00 0.00 0.00 52 1015.0